Location: Croisilles
(50.1998°N, 2.8793°E)
Time: 20:53:16
(UTC+00:00)

Helios 1A Rocket - Pass Details

Date: 21 January 2021
Orbit: 562 x 586 km, 98.3° (Epoch: 02 March)

Event Time Altitude Azimuth Distance (km) Brightness Sun altitude
Rises 18:38:47 0° 169° (S) 2,799 6.4 -21.2°
Reaches altitude 10° 18:40:56 10° 171° (S) 1,906 5.5 -21.5°
Maximum altitude 18:45:04 73° 257° (WSW) 620 3.1 -22.2°
Drops below altitude 10° 18:49:14 10° 342° (NNW) 1,924 5.7 -22.8°
Sets 18:51:25 0° 344° (NNW) 2,828 6.6 -23.2°
